Location: Kawakawa
(35.3830°S, 174.0670°E)
Time: 02:54:34
(UTC+13:00)

USA 238 - Pass Details

Date: 24 January 2019
Orbit: 1046 x 1166 km, 63.4° (Epoch: 17 February)

Event Time Altitude Azimuth Distance (km) Brightness Sun altitude
Rises 22:12:09 0° 352° (N) 4,025 6.4 -17.1°
Reaches altitude 10° 22:15:00 10° 358° (N) 3,069 5.7 -17.6°
Maximum altitude 22:21:51 43° 67° (ENE) 1,579 4.1 -18.6°
Drops below altitude 10° 22:28:39 10° 135° (SE) 3,054 6.1 -19.7°
Sets 22:31:29 0° 141° (SE) 4,005 6.8 -20.1°
